Location: Beetenbrück
(52.8113°N, 9.5946°E)
Time: 22:05:43
(UTC+00:00)

Lacrosse 5 rocket - Pass Details

Date: 14 April 2026
Orbit: 390 x 473 km, 57.0° (Epoch: 11 May)

Event Time Altitude Azimuth Distance (km) Brightness Sun altitude
Rises 19:27:20 0° 236° (SW) 2,295 4.8 -10.2°
Reaches altitude 10° 19:29:24 10° 234° (SW) 1,433 3.8 -10.5°
Maximum altitude 19:32:34 73° 150° (SSE) 415 0.5 -10.9°
Drops below altitude 10° 19:35:44 10° 65° (ENE) 1,430 3.1 -11.3°
Enters shadow 19:36:48 - 64° (ENE) 1,874 3.7 -11.4°
